Starlink 31334

operational
NORAD ID: 59157 Int'l Des: 2024-044 Owner: SPXS Country: US Constellation: starlink
LEOCIRCULAR

About Starlink 31334

Description loading...

Live Position

Loading 3D Globe...

Upcoming Passes

Altitude History

Altitude vs Time

uPlot chart will show altitude changes over time

Two-Line Element Set

1 59157U 24044F 25303.23302488 -.00000457 00000-0 -76210-5 0 9993
2 59157 42.9994 127.2409 0000960 269.3674 90.7067 15.25907495 93573
Epoch: Oct 30, 2025 • Age: 12 hours

Current Status

Altitude 487.7 km
Velocity 7.62 km/s
Sub-Earth Point 1.71°N, 2.92°E
Launch Date Mar 4, 2024
Age 1.6 years
Type internet

Technical Details

Classification Payload
Mass 730.00 kg
Dry Mass 700.00 kg
Total Mass 730.00 kg
Length 0.30 m
Diameter 4.10 m
Span 29.00 m
Shape Box + pan
Manufacturer SPXS
Bus Type Starlink V2M
Phase Status In Orbit
Owner/State SPXS/US

Large Constellations

Loading constellations...